Location: *
(50.5492°N, 7.7469°E)
Time: 04:49:50
(UTC+00:00)

ADEOS Rocket - Pass Details

Date: 21 October 2019
Orbit: 859 x 1306 km, 98.7° (Epoch: 17 November)

Event Time Altitude Azimuth Distance (km) Brightness Sun altitude
Rises 19:39:30 0° 14° (NNE) 4,306 6.5 -31.0°
Reaches altitude 10° 19:42:16 10° 14° (NNE) 3,316 5.8 -31.5°
Maximum altitude 19:50:00 82° 289° (WNW) 1,260 3.4 -32.6°
Enters shadow 19:54:13 28° 204° (SSW) 2,070 4.6 -33.2°
Exits shadow 19:57:31 - 202° (SSW) 3,202 5.6 -33.6°
Sets 19:59:37 0° 202° (SSW) 3,972 6.1 -33.9°
